Find Starlink 31853

NORAD ID: 59933 Int'l Des: 2024-106 Owner: SPXS Country: US Constellation: starlink operational
LEOCIRCULAR

Current View

Loading 3D Globe...

About Starlink 31853

Starlink 31853 (NORAD 59933) is a starlink constellation satellite (v2 mini) launched Jun 1, 2024 by SPXS of US. It operates in LEO, CIRCULAR orbit with a mass of 730.00 kg.

About Starlink 31853

Description loading...

Upcoming Passes

Passes for default location (London). Set your location on the main map for personalized predictions.

Altitude History

Loading altitude history...

Two-Line Element Set

1 59933U 24106M 26169.58763295 .00000440 00000-0 25504-4 0 9999
2 59933 43.0034 122.7234 0000860 277.8596 82.2158 15.27574733115955
Epoch: Jun 18, 2026 • Age: 20 hours

Current Status

Altitude 482.6 km
Velocity 7.63 km/s
Sub-Earth Point 4.66°N, 119.84°W
Launch Date Jun 1, 2024
Age 2 years
Type internet

Technical Details

Classification Payload
Mass 730.00 kg
Dry Mass 700.00 kg
Total Mass 730.00 kg
Length 0.30 m
Diameter 4.10 m
Span 29.00 m
Shape Box + pan
Manufacturer SPXS
Bus Type Starlink V2M
Phase Status In Orbit
Owner/State SPXS/US

Most Searched